Regional Weather Roundup
Issued by NWS

Home | Current Version | Previous Version | Text Only | Print | Product List | Glossary Off
Versions: 1 2 3 4 5 6 7 8 9 10 11 12 13 14 15 16 17 18 19 20 21 22 23 24 25 26 27 28 29 30 31 32 33 34 35 36 37 38 39 40 41 42 43 44 45 46 47 48 49 50

000
ASUS43 KOAX 251902
RWRNE

WEATHER ROUNDUP FOR NEBRASKA
NATIONAL WEATHER SERVICE OMAHA NE
200 PM CDT SUN SEP 25 2016

NOTES: SATELLITE DATA IS BEING USED TO AUGMENT CLOUD COVER ABOVE
       12000 FEET.
       "FAIR" INDICATES FEW OR NO CLOUDS BELOW 12,000 FEET WITH NO
       SIGNIFICANT WEATHER AND/OR OBSTRUCTIONS TO VISIBILITY.

  * THESE STATIONS DO NOT REPORT WEATHER SUCH AS RAIN...SNOW OR FOG.

NEZ001>004-019>022-054>056-252000-
NEBRASKA PANHANDLE

CITY           SKY/WX    TMP DP  RH WIND       PRES   REMARKS
SCOTTSBLUFF    PTSUNNY   62  36  37 NW14G21   30.39F
ALLIANCE       SUNNY     64  35  34 NW20G29   30.36S
CHADRON        SUNNY     63  28  26 NW22G33   30.36F
KIMBALL        MOSUNNY   61  36  39 NW16G24   30.41F
SIDNEY         LGT RAIN  64  35  34 NW18G33   30.39F
$$

NEZ057>060-069>072-079>082-252000-
SOUTHWEST NEBRASKA

CITY           SKY/WX    TMP DP  RH WIND       PRES   REMARKS
NORTH PLATTE   SUNNY     72  32  23 NW20G33   30.29F
IMPERIAL       MOSUNNY   69  32  25 N20G31    30.33F
LEXINGTON      SUNNY     69  32  25 NW20G30   30.27F
MCCOOK         SUNNY     73  33  23 N23G31    30.28F
OGALLALA       SUNNY     70  30  22 NW26G33   30.33F
$$

NEZ005>010-023>029-035>040-094-252000-
NORTH CENTRAL NEBRASKA

CITY           SKY/WX    TMP DP  RH WIND       PRES   REMARKS
VALENTINE      SUNNY     65  28  24 NW28G37   30.25F
AINSWORTH      SUNNY     64  33  30 NW25G38   30.24S
BROKEN BOW     SUNNY     68  30  24 NW22G36   30.25S
O`NEILL        SUNNY     68  31  24 NW26G33   30.19S
ORD            SUNNY     68  33  27 NW25G32   30.21S
THEDFORD       SUNNY     67  27  21 NW17G37   30.28F
$$

NEZ041-046>049-061>064-073>077-083>087-252000-
SOUTH CENTRAL NEBRASKA

CITY           SKY/WX    TMP DP  RH WIND       PRES   REMARKS
GRAND ISLAND   MOSUNNY   69  41  36 NW20      30.22F
AURORA         MOSUNNY   69  43  38 NW18G28   30.21F
HASTINGS       MOSUNNY   69  42  37 NW24G30   30.24S
HEBRON         SUNNY     72  45  37 NW15G21   30.19F
HOLDREGE       SUNNY     69  33  25 NW20G29   30.26F
KEARNEY *      SUNNY     72  36  26 NW20G28   30.24S
YORK           SUNNY     70  45  40 NW22G31   30.19F
$$

NEZ011>018-030>034-042>045-252000-
NORTHEAST NEBRASKA

CITY           SKY/WX    TMP DP  RH WIND       PRES   REMARKS
NORFOLK        CLOUDY    65  44  46 NW18G31   30.15S
ALBION         MOSUNNY   68  41  36 NW20G28   30.19R
BLAIR          PTSUNNY   69  48  47 NW20G30   30.13R
FREMONT        CLOUDY    68  47  47 NW20G28   30.15S
TEKAMAH        PTSUNNY   68  46  45 NW18G29   30.13R
WAYNE          CLOUDY    64  48  54 NW23G29   30.15S
$$

NEZ050>053-065>068-078-088>093-252000-
SOUTHEAST NEBRASKA

CITY           SKY/WX    TMP DP  RH WIND       PRES   REMARKS
LINCOLN        SUNNY     73  47  39 NW21G30   30.16S
OMAHA EPPLEY   PTSUNNY   70  49  47 NW18      30.11F
FALLS CITY     CLOUDY    67  52  58 NW13      30.15R
NEBRASKA CITY  PTSUNNY   69  42  37 NW10      30.14S
PLATTSMOUTH    PTSUNNY   71  44  38 W16G22    30.12F
$$

NEZ044-045-051>053-067-252000-
OMAHA AREA

CITY           SKY/WX    TMP DP  RH WIND       PRES   REMARKS
OMAHA EPPLEY   PTSUNNY   70  49  47 NW18      30.11F
BLAIR          PTSUNNY   69  48  47 NW20G30   30.13R
FREMONT        CLOUDY    68  47  47 NW20G28   30.15S
MILLARD        PTSUNNY   71  50  47 W18G25    30.12S
OFFUTT AFB     MOSUNNY   70  51  51 NW17      30.11F
PLATTSMOUTH    PTSUNNY   71  44  38 W16G22    30.12F
WAHOO          FAIR      71  45  39 NW17G26   30.15S
$$



USA.gov is the U.S. government's official web portal to all federal, state and local government web resources and services.